TimeCST,TemperatureF,Dew PointF,Humidity,Sea Level PressureIn,VisibilityMPH,Wind Direction,Wind SpeedMPH,Gust SpeedMPH,PrecipitationIn,Events,Conditions,WindDirDegrees,DateUTC
12:15 AM,10.4,3.2,73,30.13,8.0,North,13.8,24.2,N/A,,Overcast,360,2014-03-01 06:15:00
12:35 AM,10.4,1.4,67,30.13,10.0,North,11.5,16.1,N/A,,Overcast,350,2014-03-01 06:35:00
12:55 AM,8.6,1.4,73,30.17,10.0,North,15.0,23.0,N/A,,Overcast,350,2014-03-01 06:55:00
1:15 AM,8.6,3.2,79,30.18,10.0,NNW,12.7,18.4,N/A,,Overcast,340,2014-03-01 07:15:00
1:35 AM,8.6,-0.4,67,30.18,9.0,North,11.5,25.3,N/A,,Overcast,350,2014-03-01 07:35:00
1:55 AM,8.6,1.4,73,30.18,10.0,North,10.4,19.6,N/A,,Overcast,350,2014-03-01 07:55:00
2:15 AM,8.6,1.4,73,30.21,10.0,NNW,11.5,19.6,N/A,,Overcast,340,2014-03-01 08:15:00
2:35 AM,6.8,-0.4,72,30.21,10.0,NNW,12.7,19.6,N/A,,Overcast,340,2014-03-01 08:35:00
2:55 AM,6.8,-2.2,67,30.22,10.0,NNW,10.4,18.4,N/A,,Overcast,340,2014-03-01 08:55:00
3:15 AM,6.8,-2.2,67,30.24,10.0,NNW,13.8,19.6,N/A,,Overcast,340,2014-03-01 09:15:00
3:55 AM,3.2,-2.2,78,30.22,9.0,North,16.1,23.0,N/A,,Overcast,360,2014-03-01 09:55:00
4:15 AM,3.2,-4.0,72,30.23,10.0,North,9.2,18.4,N/A,,Overcast,360,2014-03-01 10:15:00
4:35 AM,3.2,-5.8,66,30.24,10.0,North,15.0,21.9,N/A,,Overcast,350,2014-03-01 10:35:00
4:55 AM,1.4,-5.8,72,30.26,10.0,North,11.5,18.4,N/A,,Overcast,350,2014-03-01 10:55:00
5:15 AM,1.4,-5.8,72,30.27,10.0,North,12.7,17.3,N/A,,Overcast,360,2014-03-01 11:15:00
5:35 AM,1.4,-5.8,72,30.25,10.0,North,12.7,21.9,N/A,,Mostly Cloudy,360,2014-03-01 11:35:00
5:55 AM,1.4,-5.8,72,30.27,9.0,North,10.4,18.4,N/A,,Mostly Cloudy,360,2014-03-01 11:55:00
6:15 AM,1.4,-5.8,72,30.27,7.0,North,15.0,20.7,N/A,,Overcast,10,2014-03-01 12:15:00
6:35 AM,1.4,-5.8,72,30.30,10.0,North,12.7,21.9,N/A,,Overcast,360,2014-03-01 12:35:00
6:55 AM,1.4,-5.8,72,30.31,9.0,North,10.4,20.7,N/A,,Overcast,360,2014-03-01 12:55:00
7:15 AM,1.4,-5.8,72,30.31,2.0,North,10.4,-,N/A,,Overcast,350,2014-03-01 13:15:00
7:35 AM,1.4,-5.8,72,30.32,3.0,North,9.2,-,N/A,,Overcast,350,2014-03-01 13:35:00
7:55 AM,-0.4,-5.8,78,30.31,2.0,North,13.8,20.7,N/A,,Overcast,10,2014-03-01 13:55:00
8:15 AM,-0.4,-5.8,78,30.34,1.8,North,10.4,17.3,N/A,,Overcast,10,2014-03-01 14:15:00
8:35 AM,1.4,-5.8,72,30.36,5.0,North,9.2,-,N/A,,Overcast,360,2014-03-01 14:35:00
8:55 AM,1.4,-5.8,72,30.37,2.5,North,11.5,18.4,N/A,,Overcast,10,2014-03-01 14:55:00
9:15 AM,1.4,-5.8,72,30.38,1.0,North,9.2,16.1,N/A,,Overcast,350,2014-03-01 15:15:00
9:35 AM,1.4,-5.8,72,30.39,1.0,North,8.1,-,N/A,,Overcast,360,2014-03-01 15:35:00
9:55 AM,-0.4,-5.8,78,30.41,0.8,North,10.4,-,N/A,,Overcast,350,2014-03-01 15:55:00
10:15 AM,-0.4,-5.8,78,30.42,0.8,North,11.5,17.3,N/A,,Overcast,350,2014-03-01 16:15:00
10:35 AM,-0.4,-5.8,78,30.43,0.5,NNW,9.2,16.1,N/A,,Overcast,340,2014-03-01 16:35:00
10:55 AM,-0.4,-5.8,78,30.42,0.5,North,10.4,16.1,N/A,,Overcast,360,2014-03-01 16:55:00
11:15 AM,-0.4,-5.8,78,30.42,0.5,North,9.2,21.9,N/A,,Overcast,360,2014-03-01 17:15:00
11:35 AM,-0.4,-5.8,78,30.44,1.2,North,10.4,19.6,N/A,,Overcast,360,2014-03-01 17:35:00
11:55 AM,1.4,-5.8,72,30.44,1.5,North,12.7,18.4,N/A,,Overcast,350,2014-03-01 17:55:00
12:15 PM,1.4,-5.8,72,30.42,1.0,North,15.0,-,N/A,,Overcast,350,2014-03-01 18:15:00
12:35 PM,1.4,-5.8,72,30.41,3.0,North,13.8,18.4,N/A,,Overcast,10,2014-03-01 18:35:00
12:55 PM,1.4,-7.6,66,30.41,4.0,North,15.0,21.9,N/A,,Mostly Cloudy,360,2014-03-01 18:55:00
1:15 PM,1.4,-5.8,72,30.40,1.2,North,12.7,17.3,N/A,,Overcast,360,2014-03-01 19:15:00
1:35 PM,1.4,-5.8,72,30.40,1.0,North,10.4,17.3,N/A,,Overcast,350,2014-03-01 19:35:00
1:55 PM,1.4,-5.8,72,30.40,1.8,North,10.4,18.4,N/A,,Overcast,350,2014-03-01 19:55:00
2:15 PM,-0.4,-7.6,72,30.39,1.5,North,9.2,19.6,N/A,,Overcast,350,2014-03-01 20:15:00
2:35 PM,1.4,-7.6,66,30.40,1.8,North,9.2,16.1,N/A,,Overcast,350,2014-03-01 20:35:00
2:55 PM,-0.4,-7.6,72,30.42,2.0,North,11.5,18.4,N/A,,Overcast,350,2014-03-01 20:55:00
3:15 PM,-0.4,-7.6,72,30.41,3.0,North,12.7,19.6,N/A,,Mostly Cloudy,10,2014-03-01 21:15:00
3:35 PM,-0.4,-7.6,72,30.40,1.5,North,10.4,-,N/A,,Overcast,350,2014-03-01 21:35:00
3:55 PM,-0.4,-7.6,72,30.41,4.0,North,10.4,-,N/A,,Overcast,360,2014-03-01 21:55:00
4:15 PM,-0.4,-7.6,72,30.42,2.0,North,11.5,-,N/A,,Overcast,350,2014-03-01 22:15:00
4:35 PM,-0.4,-9.4,66,30.42,1.5,North,10.4,19.6,N/A,,Overcast,360,2014-03-01 22:35:00
4:55 PM,-2.2,-7.6,78,30.43,2.0,North,9.2,18.4,N/A,,Overcast,350,2014-03-01 22:55:00
5:15 PM,-2.2,-9.4,71,30.43,5.0,North,9.2,17.3,N/A,,Overcast,350,2014-03-01 23:15:00
5:35 PM,-2.2,-9.4,71,30.43,10.0,North,9.2,-,N/A,,Overcast,10,2014-03-01 23:35:00
5:55 PM,-2.2,-11.2,66,30.44,10.0,North,11.5,16.1,N/A,,Overcast,360,2014-03-01 23:55:00
6:15 PM,-2.2,-9.4,71,30.45,5.0,North,13.8,21.9,N/A,,Overcast,350,2014-03-02 00:15:00
6:35 PM,-2.2,-11.2,66,30.46,10.0,North,8.1,-,N/A,,Overcast,350,2014-03-02 00:35:00
6:55 PM,-2.2,-9.4,71,30.46,1.8,North,11.5,16.1,N/A,,Overcast,350,2014-03-02 00:55:00
7:15 PM,-2.2,-9.4,71,30.46,5.0,North,10.4,-,N/A,,Overcast,360,2014-03-02 01:15:00
7:35 PM,-2.2,-9.4,71,30.46,10.0,North,13.8,18.4,N/A,,Overcast,360,2014-03-02 01:35:00
7:55 PM,-2.2,-9.4,71,30.46,10.0,North,10.4,-,N/A,,Overcast,350,2014-03-02 01:55:00
8:15 PM,-2.2,-9.4,71,30.46,9.0,North,5.8,-,N/A,,Overcast,350,2014-03-02 02:15:00
8:35 PM,-2.2,-9.4,71,30.46,7.0,North,9.2,-,N/A,,Overcast,350,2014-03-02 02:35:00
8:55 PM,-2.2,-9.4,71,30.46,6.0,North,10.4,17.3,N/A,,Overcast,360,2014-03-02 02:55:00
9:15 PM,-2.2,-11.2,66,30.48,10.0,North,9.2,17.3,N/A,,Overcast,350,2014-03-02 03:15:00
9:35 PM,-2.2,-9999,N/A,30.49,10.0,North,11.5,-,N/A,,Overcast,350,2014-03-02 03:35:00
9:55 PM,-2.2,-9.4,71,30.49,7.0,North,12.7,18.4,N/A,,Overcast,360,2014-03-02 03:55:00
10:15 PM,-4.0,-9999,N/A,30.49,10.0,North,8.1,16.1,N/A,,Overcast,360,2014-03-02 04:15:00
10:35 PM,-2.2,-11.2,66,30.49,10.0,North,9.2,-,N/A,,Overcast,10,2014-03-02 04:35:00
10:55 PM,-4.0,-13.0,65,30.49,10.0,North,11.5,19.6,N/A,,Overcast,360,2014-03-02 04:55:00
11:15 PM,-4.0,-13.0,65,30.51,10.0,NNW,8.1,-,N/A,,Overcast,340,2014-03-02 05:15:00
11:35 PM,-5.8,-14.8,65,30.51,10.0,North,8.1,16.1,N/A,,Overcast,360,2014-03-02 05:35:00
11:55 PM,-5.8,-14.8,65,30.51,10.0,North,10.4,16.1,N/A,,Overcast,350,2014-03-02 05:55:00